Location: Kirchberg
(47.4114°N, 9.0398°E)
Time: 00:08:35
(UTC+00:00)

Cosmos 1777 Rocket - Pass Details

Date: 03 March 2021
Orbit: 759 x 775 km, 74.0° (Epoch: 20 April)

Event Time Altitude Azimuth Distance (km) Brightness Sun altitude
Rises 18:27:34 0° 341° (NNW) 3,250 7.6 -13.6°
Reaches altitude 10° 18:30:06 10° 349° (N) 2,316 6.7 -14.0°
Maximum altitude 18:35:05 42° 60° (ENE) 1,084 4.4 -14.8°
Enters shadow 18:38:05 22° 120° (ESE) 1,639 5.2 -15.3°
